Location: Newark
(49.9828°N, 3.1606°E)
Time: 21:00:03
(UTC+00:00)

Envisat - Pass Details

Date: 31 January 2020
Orbit: 764 x 766 km, 98.1° (Epoch: 25 February)

Event Time Altitude Azimuth Distance (km) Brightness Sun altitude
Rises 17:06:15 0° 155° (SSE) 3,222 6.2 -4.8°
Reaches altitude 10° 17:08:33 10° 153° (SSE) 2,300 5.4 -5.2°
Maximum altitude 17:13:34 66° 72° (ENE) 835 3.0 -5.9°
Drops below altitude 10° 17:18:38 10° 351° (N) 2,316 5.4 -6.7°
Sets 17:20:57 0° 348° (NNW) 3,246 6.2 -7.1°
